This demonstration page uses our WeatherBlox Daily Observations layout. Learn more.

38.89511, -77.03637

Hourly Observations for January 19, 2015

Temp ( °F °C ) Dew Point ( °F °C ) Humidity (%) Winds ( mph kmh ) Pressure ( in mb ) Visibility ( mi km ) Precip ( " mm )
12:52 am 00:52 Mostly Clear 42 5.6 30 -1.1 62 62 Calm 29.88 1012 10 16.0934 0 0
1:52 am 01:52 Mostly Clear 39 3.9 29 -1.7 67 67 WSW 3 6 29.89 1012 10 16.0934 0 0
2:52 am 02:52 Cloudy 41 5 29 -1.7 62 62 W 6 9 29.91 1013 10 16.0934 0 0
3:52 am 03:52 Cloudy 38 3.3 30 -1.1 73 73 Calm 29.92 1013 10 16.0934 0 0
4:52 am 04:52 Cloudy 38 3.3 30 -1.1 73 73 Calm 29.93 1013 10 16.0934 0 0
5:52 am 05:52 Cloudy 42 5.6 27 -2.8 55 55 SW 6 9 29.94 1014 10 16.0934 0 0
6:52 am 06:52 Cloudy 43 6.1 26 -3.3 51 51 W 12 19 29.96 1015 10 16.0934 0 0
7:52 am 07:52 Cloudy 44 6.7 26 -3.3 49 49 WNW 13 20 29.98 1015 10 16.0934 0 0
8:52 am 08:52 Cloudy 44 6.7 25 -3.9 47 47 WNW 10 17 29.99 1016 10 16.0934 0 0
9:52 am 09:52 Cloudy 45 7.2 25 -3.9 46 46 WNW 6 9 30.01 1016 10 16.0934 0 0
10:52 am 10:52 Cloudy 45 7.2 25 -3.9 46 46 NW 13 20 30.02 1017 10 16.0934 0 0
11:52 am 11:52 Cloudy 45 7.2 25 -3.9 46 46 NW 10 17 30 1016 10 16.0934 0 0
12:52 pm 12:52 Mostly Cloudy 48 8.9 27 -2.8 44 44 W 12 19 29.98 1015 10 16.0934 0 0
1:52 pm 13:52 Cloudy 49 9.4 25 -3.9 39 39 WNW 10 17 29.96 1015 10 16.0934 0 0
2:52 pm 14:52 Mostly Cloudy 49 9.4 23 -5 36 36 VRB 6 9 29.96 1014 10 16.0934 0 0
3:52 pm 15:52 Mostly Sunny 49 9.4 23 -5 36 36 NW 10 17 29.95 1014 10 16.0934 0 0
4:52 pm 16:52 Mostly Sunny 48 8.9 21 -6.1 34 34 WNW 3 6 29.95 1014 10 16.0934 0 0
5:52 pm 17:52 Mostly Clear 43 6.1 23 -5 45 45 N 6 9 29.96 1015 10 16.0934 0 0
6:52 pm 18:52 Mostly Clear 43 6.1 23 -5 45 45 N 6 9 29.97 1015 10 16.0934 0 0
7:52 pm 19:52 Clear 39 3.9 25 -3.9 57 57 SSE 5 7 29.96 1015 10 16.0934 0 0
8:52 pm 20:52 Partly Cloudy 38 3.3 27 -2.8 65 65 SSE 3 6 29.97 1015 10 16.0934 0 0
9:52 pm 21:52 Mostly Cloudy 37 2.8 27 -2.8 67 67 Calm 29.99 1016 10 16.0934 0 0
10:52 pm 22:52 Mostly Cloudy 34 1.1 27 -2.8 76 76 SSW 6 9 29.99 1016 10 16.0934 0 0
11:52 pm 23:52 Mostly Cloudy 35 1.7 26 -3.3 70 70 SSW 5 7 29.98 1015 10 16.0934 0 0

Powered by AerisWeather